EW6996 Weather Reports


Display with metric or nautical units.
time (UTC)temp
F
wind
direction
speed
MPH
gust
MPH
rain 1hr
in
rain 24hr
in
rain mn
in
humidity
%
barometer
mb
20180225151210 27 250 6.0 10.0 0.00 0.00 0.00 30 1022.1
20180225150711 26 116 0.0 8.0 0.00 0.00 0.00 32 1022.1
20180225150210 25 104 0.0 2.0 0.00 0.00 0.00 29 1022.0
20180225145710 24 113 0.0 2.0 0.00 0.00 0.00 30 1022.0
20180225145209 23 114 0.0 2.0 0.00 0.00 0.00 32 1021.8
20180225144709 22 135 1.0 2.0 0.00 0.00 0.00 34 1021.9
20180225144209 22 133 0.0 2.0 0.00 0.00 0.00 36 1021.8
20180225143709 21 129 2.0 2.0 0.00 0.00 0.00 37 1021.8
20180225143208 21 124 0.0 0.0 0.00 0.00 0.00 36 1021.7
20180225142711 21 126 0.0 2.0 0.00 0.00 0.00 36 1021.7
20180225142209 20 119 0.0 2.0 0.00 0.00 0.00 38 1021.4
20180225141709 20 119 0.0 2.0 0.00 0.00 0.00 38 1021.4
20180225141208 19 94 0.0 2.0 0.00 0.00 0.00 38 1021.3
20180225140708 19 111 0.0 5.0 0.00 0.00 0.00 38 1021.1
20180225140208 18 168 2.0 5.0 0.00 0.00 0.00 41 1020.9
20180225135708 18 147 0.0 0.0 0.00 0.00 0.00 39 1020.8
20180225135207 17 126 0.0 0.0 0.00 0.00 0.00 39 1020.8
20180225134711 17 132 0.0 0.0 0.00 0.00 0.00 39 1020.9
20180225134207 17 125 0.0 0.0 0.00 0.00 0.00 39 1020.8
20180225133706 18 112 0.0 0.0 0.00 0.00 0.00 40 1020.8
20180225133206 18 120 0.0 2.0 0.00 0.00 0.00 39 1020.8
20180225132706 18 135 0.0 2.0 0.00 0.00 0.00 38 1020.7
20180225132207 18 113 0.0 2.0 0.00 0.00 0.00 38 1020.6
20180225131707 19 111 0.0 2.0 0.00 0.00 0.00 36 1020.5
20180225131207 19 130 0.0 2.0 0.00 0.00 0.00 34 1020.4
20180225130709 19 82 2.0 2.0 0.00 0.00 0.00 33 1020.4
20180225130209 20 111 0.0 2.0 0.00 0.00 0.00 32 1020.2
20180225125706 20 97 0.0 2.0 0.00 0.00 0.00 32 1020.2
20180225125206 21 211 2.0 2.0 0.00 0.00 0.00 35 1020.1
20180225124709 21 113 0.0 2.0 0.00 0.00 0.00 34 1020.0
20180225124206 21 116 0.0 2.0 0.00 0.00 0.00 34 1020.0
20180225123706 22 151 0.0 2.0 0.00 0.00 0.00 34 1019.9
20180225123206 22 142 0.0 5.0 0.00 0.00 0.00 33 1019.9
20180225122709 22 133 0.0 5.0 0.00 0.00 0.00 32 1019.9
20180225122207 22 144 0.0 5.0 0.00 0.00 0.00 32 1019.8
20180225121706 23 197 2.0 8.0 0.00 0.00 0.00 32 1019.6
20180225121205 23 252 3.0 8.0 0.00 0.00 0.00 32 1019.6
20180225120705 23 153 1.0 10.0 0.00 0.00 0.00 31 1019.5
20180225120206 23 185 4.0 10.0 0.00 0.00 0.00 31 1019.5
20180225115706 23 206 2.0 10.0 0.00 0.00 0.00 30 1019.5
20180225115206 23 168 2.0 10.0 0.00 0.00 0.00 30 1019.5
20180225114705 23 204 3.0 8.0 0.00 0.00 0.00 32 1019.4
20180225114205 23 211 3.0 10.0 0.00 0.00 0.00 31 1019.3
20180225113705 23 211 8.0 10.0 0.00 0.00 0.00 32 1019.2
20180225113205 23 207 4.0 13.0 0.00 0.00 0.00 32 1019.2
20180225112706 23 240 6.0 13.0 0.00 0.00 0.00 32 1019.0
20180225112204 23 243 6.0 13.0 0.00 0.00 0.00 31 1019.0
20180225111705 23 240 5.0 13.0 0.00 0.00 0.00 32 1019.0
20180225111204 23 206 9.0 13.0 0.00 0.00 0.00 33 1019.0
20180225110704 23 243 5.0 13.0 0.00 0.00 0.00 32 1018.9
20180225110204 23 157 3.0 10.0 0.00 0.00 0.00 33 1018.9
20180225105704 23 199 3.0 8.0 0.00 0.00 0.00 33 1018.9
20180225105204 23 180 5.0 13.0 0.00 0.00 0.00 33 1018.8
20180225104703 23 181 4.0 13.0 0.00 0.00 0.00 33 1018.9
20180225104206 23 196 6.0 13.0 0.00 0.00 0.00 32 1018.9
20180225103704 24 172 6.0 13.0 0.00 0.00 0.00 32 1018.8
20180225103203 24 208 7.0 10.0 0.00 0.00 0.00 32 1018.9
20180225102704 24 205 5.0 10.0 0.00 0.00 0.00 32 1018.9
20180225102205 24 196 4.0 10.0 0.00 0.00 0.00 32 1018.8
20180225101703 24 198 6.0 13.0 0.00 0.00 0.00 31 1018.8
20180225101203 25 189 8.0 13.0 0.00 0.00 0.00 31 1018.7
20180225100703 25 203 6.0 13.0 0.00 0.00 0.00 31 1018.9
20180225100205 25 208 11.0 13.0 0.00 0.00 0.00 31 1018.8
20180225095702 25 198 4.0 20.0 0.00 0.00 0.00 30 1018.8
20180225095202 25 220 7.0 20.0 0.00 0.00 0.00 29 1018.8
20180225094703 25 212 9.0 15.0 0.00 0.00 0.00 29 1018.9
20180225094202 25 197 10.0 15.0 0.00 0.00 0.00 29 1019.0
20180225093702 25 210 6.0 15.0 0.00 0.00 0.00 29 1019.3
20180225093202 24 206 7.0 15.0 0.00 0.00 0.00 29 1019.2
20180225092703 24 147 3.0 15.0 0.00 0.00 0.00 29 1019.4
20180225092202 24 195 4.0 15.0 0.00 0.00 0.00 30 1019.4
20180225091201 24 174 5.0 15.0 0.00 0.00 0.00 31 1019.4
20180225090702 24 188 6.0 15.0 0.00 0.00 0.00 31 1019.5
20180225090202 23 183 6.0 17.0 0.00 0.00 0.00 31 1019.5
20180225085701 21 247 10.0 17.0 0.00 0.00 0.00 32 1019.5
20180225085202 20 194 9.0 15.0 0.00 0.00 0.00 32 1019.4
20180225084701 19 210 9.0 15.0 0.00 0.00 0.00 35 1019.4
20180225084202 17 232 6.0 13.0 0.00 0.00 0.00 41 1019.4
20180225083702 16 208 5.0 8.0 0.00 0.00 0.00 49 1019.4
20180225083201 16 125 1.0 2.0 0.00 0.00 0.00 48 1019.4
20180225082701 16 117 0.0 2.0 0.00 0.00 0.00 48 1019.5
20180225082201 16 115 0.0 5.0 0.00 0.00 0.00 47 1019.5
20180225081707 17 102 0.0 5.0 0.00 0.00 0.00 47 1019.4
20180225081200 17 114 0.0 5.0 0.00 0.00 0.00 47 1019.6
20180225080700 17 115 0.0 8.0 0.00 0.00 0.00 46 1019.8
20180225080204 17 120 3.0 8.0 0.00 0.00 0.00 44 1019.6
20180225075702 18 123 0.0 5.0 0.00 0.00 0.00 44 1019.8
20180225075200 18 114 0.0 5.0 0.00 0.00 0.00 43 1019.9
20180225074700 18 127 1.0 5.0 0.00 0.00 0.00 43 1019.9
20180225074200 18 133 0.0 5.0 0.00 0.00 0.00 42 1020.0
20180225073659 18 133 2.0 8.0 0.00 0.00 0.00 42 1019.9
20180225073200 18 137 3.0 13.0 0.00 0.00 0.00 42 1020.0
20180225072659 19 134 7.0 13.0 0.00 0.00 0.00 42 1020.0
20180225072200 19 144 3.0 13.0 0.00 0.00 0.00 42 1020.0
20180225071659 20 134 7.0 10.0 0.00 0.00 0.00 41 1020.0
20180225071159 20 140 6.0 8.0 0.00 0.00 0.00 39 1020.0
20180225070658 20 139 2.0 8.0 0.00 0.00 0.00 38 1020.0
20180225070201 21 137 0.0 8.0 0.00 0.00 0.00 40 1020.0
20180225065701 21 128 2.0 8.0 0.00 0.00 0.00 39 1020.1
20180225065159 21 135 1.0 8.0 0.00 0.00 0.00 39 1020.0
20180225064659 20 146 4.0 8.0 0.00 0.00 0.00 38 1019.9
20180225064158 20 136 0.0 2.0 0.00 0.00 0.00 39 1020.0
20180225063658 20 129 0.0 5.0 0.00 0.00 0.00 42 1020.0
20180225063158 20 150 2.0 5.0 0.00 0.00 0.00 43 1019.9
20180225062657 20 157 0.0 0.0 0.00 0.00 0.00 44 1019.9
20180225062158 20 130 0.0 0.0 0.00 0.00 0.00 44 1019.9
20180225061701 21 123 0.0 0.0 0.00 0.00 0.00 43 1019.9
20180225061158 21 116 0.0 0.0 0.00 0.00 0.00 42 1019.9
20180225060657 21 121 0.0 2.0 0.00 0.00 0.00 41 1019.9
20180225060158 21 93 0.0 2.0 0.00 0.00 0.00 40 1019.9
20180225055657 21 1 1.0 2.0 0.00 0.00 0.00 38 1019.9
20180225055158 22 121 0.0 5.0 0.00 0.00 0.00 38 1019.9
20180225054657 21 127 0.0 5.0 0.00 0.00 0.00 40 1019.9
20180225054157 21 170 3.0 5.0 0.00 0.00 0.00 43 1020.0
20180225053657 21 127 0.0 5.0 0.00 0.00 0.00 43 1019.9
20180225053157 21 145 1.0 5.0 0.00 0.00 0.00 42 1019.9
20180225052657 21 47 0.0 5.0 0.00 0.00 0.00 40 1019.9
20180225052156 21 102 2.0 5.0 0.00 0.00 0.00 42 1019.8
20180225051658 21 132 1.0 2.0 0.00 0.00 0.00 44 1020.0
20180225051157 22 134 0.0 5.0 0.00 0.00 0.00 44 1019.9
20180225050657 22 132 0.0 8.0 0.00 0.00 0.00 43 1019.9
20180225050157 22 108 1.0 8.0 0.00 0.00 0.00 42 1019.8
20180225045656 22 133 3.0 8.0 0.00 0.00 0.00 42 1019.6
20180225045155 22 158 2.0 8.0 0.00 0.00 0.00 42 1019.6
20180225044655 23 158 3.0 10.0 0.00 0.00 0.00 42 1019.5
20180225044155 23 171 4.0 10.0 0.00 0.00 0.00 41 1019.4
20180225043655 23 154 3.0 10.0 0.00 0.00 0.00 41 1019.3
20180225043154 24 139 3.0 8.0 0.00 0.00 0.00 41 1019.3
20180225042655 24 170 4.0 8.0 0.00 0.00 0.00 39 1019.3
20180225042156 24 140 3.0 8.0 0.00 0.00 0.00 39 1019.2
20180225041655 24 156 2.0 8.0 0.00 0.00 0.00 37 1019.0
20180225041157 24 143 2.0 8.0 0.00 0.00 0.00 36 1019.0
20180225040654 24 139 5.0 8.0 0.00 0.00 0.00 35 1019.0
20180225040154 24 136 2.0 8.0 0.00 0.00 0.00 36 1019.0
20180225035654 24 151 2.0 8.0 0.00 0.00 0.00 35 1018.9
20180225035157 25 137 4.0 8.0 0.00 0.00 0.00 34 1018.9
20180225034654 24 126 2.0 8.0 0.00 0.00 0.00 34 1018.9
20180225034155 24 131 1.0 5.0 0.00 0.00 0.00 33 1018.8
20180225033654 25 159 4.0 10.0 0.00 0.00 0.00 34 1018.7
20180225033157 25 152 1.0 10.0 0.00 0.00 0.00 34 1018.7
20180225032654 25 136 3.0 8.0 0.00 0.00 0.00 35 1018.6
20180225032154 25 129 0.0 5.0 0.00 0.00 0.00 35 1018.6
20180225031653 25 117 2.0 8.0 0.00 0.00 0.00 34 1018.6
20180225031154 25 121 0.0 8.0 0.00 0.00 0.00 34 1018.4
20180225030654 26 149 4.0 8.0 0.00 0.00 0.00 32 1018.3
20180225030153 26 135 3.0 8.0 0.00 0.00 0.00 31 1018.3
20180225025654 26 143 4.0 8.0 0.00 0.00 0.00 31 1018.4
20180225025156 26 164 5.0 8.0 0.00 0.00 0.00 30 1018.3
20180225024653 26 161 4.0 8.0 0.00 0.00 0.00 30 1018.3
20180225024153 27 126 2.0 8.0 0.00 0.00 0.00 30 1018.2
20180225023653 27 148 2.0 8.0 0.00 0.00 0.00 29 1018.3
20180225023155 27 153 5.0 8.0 0.00 0.00 0.00 29 1018.3
20180225022653 27 156 3.0 5.0 0.00 0.00 0.00 27 1018.2
20180225022153 27 208 1.0 5.0 0.00 0.00 0.00 24 1018.2
20180225021653 27 116 2.0 2.0 0.00 0.00 0.00 24 1018.1
20180225021155 28 134 0.0 5.0 0.00 0.00 0.00 24 1018.3
20180225020654 28 108 0.0 5.0 0.00 0.00 0.00 24 1018.1
20180225020155 28 125 2.0 5.0 0.00 0.00 0.00 24 1018.0
20180225015652 28 99 0.0 5.0 0.00 0.00 0.00 24 1018.0
20180225015152 28 107 0.0 5.0 0.00 0.00 0.00 24 1018.1
20180225014652 29 130 3.0 5.0 0.00 0.00 0.00 24 1018.0
20180225014151 29 106 3.0 8.0 0.00 0.00 0.00 28 1018.0
20180225013652 29 148 0.0 8.0 0.00 0.00 0.00 28 1018.1
20180225013154 29 51 5.0 8.0 0.00 0.00 0.00 29 1017.7
20180225012652 29 103 0.0 5.0 0.00 0.00 0.00 30 1017.7
20180225012151 29 86 0.0 8.0 0.00 0.00 0.00 30 1017.6
20180225011653 30 133 0.0 8.0 0.00 0.00 0.00 30 1017.6
20180225011151 30 22 5.0 5.0 0.00 0.00 0.00 31 1017.5
20180225010654 30 86 1.0 8.0 0.00 0.00 0.00 30 1017.5
20180225010152 30 91 1.0 8.0 0.00 0.00 0.00 30 1017.3
20180225005652 31 88 1.0 8.0 0.00 0.00 0.00 29 1017.0
20180225005153 31 101 2.0 8.0 0.00 0.00 0.00 28 1017.0
20180225004650 31 97 0.0 8.0 0.00 0.00 0.00 27 1016.9
20180225004150 32 46 2.0 10.0 0.00 0.00 0.00 27 1016.8
20180225003650 32 92 2.0 10.0 0.00 0.00 0.00 26 1016.7
20180225003150 32 95 3.0 10.0 0.00 0.00 0.00 25 1016.4
20180225002651 33 43 5.0 10.0 0.00 0.00 0.00 25 1016.5
20180225002150 33 12 6.0 10.0 0.00 0.00 0.00 23 1016.5
20180225001650 33 96 3.0 13.0 0.00 0.00 0.00 24 1016.7
20180225001150 34 92 4.0 13.0 0.00 0.00 0.00 23 1016.4
20180225000650 34 2 4.0 13.0 0.00 0.00 0.00 23 1016.3
20180225000152 34 79 6.0 13.0 0.00 0.00 0.00 23 1016.2
20180224235650 35 77 6.0 13.0 0.00 0.00 0.00 22 1016.2
20180224235150 35 91 3.0 10.0 0.00 0.00 0.00 23 1016.2
20180224234649 35 36 5.0 10.0 0.00 0.00 0.00 22 1016.2
20180224234152 35 48 3.0 10.0 0.00 0.00 0.00 21 1016.1
20180224233650 35 104 1.0 8.0 0.00 0.00 0.00 21 1015.9
20180224233149 35 98 1.0 13.0 0.00 0.00 0.00 22 1015.8
20180224232648 35 43 4.0 13.0 0.00 0.00 0.00 21 1015.9
20180224232152 36 30 2.0 13.0 0.00 0.00 0.00 20 1015.9
20180224231651 36 47 2.0 10.0 0.00 0.00 0.00 20 1015.9
20180224231148 36 44 5.0 13.0 0.00 0.00 0.00 20 1015.9
20180224230654 36 75 4.0 13.0 0.00 0.00 0.00 19 1015.9
20180224230149 36 38 6.0 13.0 0.00 0.00 0.00 20 1015.9
20180224225647 36 332 4.0 13.0 0.00 0.00 0.00 20 1015.9
20180224225148 36 46 0.0 13.0 0.00 0.00 0.00 20 1016.1
20180224224649 36 29 8.0 10.0 0.00 0.00 0.00 21 1015.9
20180224224148 36 3 5.0 10.0 0.00 0.00 0.00 20 1015.8
20180224223647 36 45 4.0 13.0 0.00 0.00 0.00 19 1015.8
20180224223148 36 45 5.0 13.0 0.00 0.00 0.00 19 1015.8
20180224222650 37 69 3.0 13.0 0.00 0.00 0.00 20 1015.9
20180224222151 37 269 4.0 13.0 0.00 0.00 0.00 19 1015.9
20180224221647 36 327 7.0 17.0 0.00 0.00 0.00 20 1015.9
20180224221148 36 28 4.0 20.0 0.00 0.00 0.00 24 1016.1
20180224220647 36 279 9.0 20.0 0.00 0.00 0.00 19 1016.1
20180224220150 36 349 2.0 15.0 0.00 0.00 0.00 20 1015.8
20180224215648 36 279 5.0 15.0 0.00 0.00 0.00 19 1015.8
20180224215148 36 7 7.0 15.0 0.00 0.00 0.00 19 1015.7
20180224214647 36 251 10.0 15.0 0.00 0.00 0.00 19 1015.8
20180224214146 36 319 12.0 17.0 0.00 0.00 0.00 19 1015.7
20180224213649 36 71 2.0 17.0 0.00 0.00 0.00 20 1015.8
20180224213147 36 347 7.0 15.0 0.00 0.00 0.00 20 1015.8
20180224212647 36 259 4.0 15.0 0.00 0.00 0.00 20 1015.9
20180224212149 36 6 11.0 17.0 0.00 0.00 0.00 20 1015.8
20180224211647 36 17 11.0 17.0 0.00 0.00 0.00 20 1015.8
20180224211146 36 337 6.0 17.0 0.00 0.00 0.00 19 1015.8
20180224210645 36 297 6.0 17.0 0.00 0.00 0.00 20 1015.9
20180224210147 36 7 6.0 17.0 0.00 0.00 0.00 20 1015.8
20180224205646 35 18 9.0 17.0 0.00 0.00 0.00 20 1015.7
20180224205149 35 350 10.0 17.0 0.00 0.00 0.00 21 1015.8
20180224204647 35 270 7.0 17.0 0.00 0.00 0.00 20 1015.8
20180224204147 35 325 6.0 20.0 0.00 0.00 0.00 24 1015.9
20180224203646 35 8 10.0 20.0 0.00 0.00 0.00 21 1015.9
20180224203146 35 293 10.0 20.0 0.00 0.00 0.00 21 1016.2
20180224202650 35 339 9.0 20.0 0.00 0.00 0.00 21 1016.1
20180224202153 35 266 6.0 17.0 0.00 0.00 0.00 21 1016.1
20180224201647 35 3 3.0 20.0 0.00 0.00 0.00 20 1015.9
20180224201146 36 309 10.0 23.0 0.00 0.00 0.00 19 1015.9
20180224200646 36 281 7.0 23.0 0.00 0.00 0.00 21 1016.1
20180224200147 36 20 15.0 20.0 0.00 0.00 0.00 20 1015.9
20180224195649 35 15 3.0 17.0 0.00 0.00 0.00 20 1016.1
20180224195146 35 352 11.0 17.0 0.00 0.00 0.00 20 1016.1
20180224194646 35 18 9.0 15.0 0.00 0.00 0.00 19 1016.2
20180224194149 34 103 3.0 13.0 0.00 0.00 0.00 19 1016.2
20180224193644 34 209 4.0 13.0 0.00 0.00 0.00 21 1016.3
20180224193144 34 299 8.0 15.0 0.00 0.00 0.00 19 1016.4
20180224192643 34 250 6.0 17.0 0.00 0.00 0.00 19 1016.4
20180224192149 34 6 5.0 17.0 0.00 0.00 0.00 21 1016.5
20180224191643 34 9 7.0 17.0 0.00 0.00 0.00 22 1016.7
20180224191143 34 293 6.0 17.0 0.00 0.00 0.00 22 1016.7
20180224190643 34 160 3.0 20.0 0.00 0.00 0.00 21 1016.7
20180224190143 34 21 10.0 20.0 0.00 0.00 0.00 21 1016.7
20180224185644 34 293 10.0 20.0 0.00 0.00 0.00 21 1016.7
20180224185143 33 256 13.0 20.0 0.00 0.00 0.00 21 1016.7
20180224184642 33 267 12.0 20.0 0.00 0.00 0.00 21 1016.8
20180224184141 33 266 2.0 23.0 0.00 0.00 0.00 20 1016.7
20180224183643 33 252 5.0 23.0 0.00 0.00 0.00 21 1016.7
20180224183142 33 334 13.0 20.0 0.00 0.00 0.00 22 1016.7
20180224182642 33 326 6.0 23.0 0.00 0.00 0.00 22 1016.8
20180224182142 32 278 9.0 23.0 0.00 0.00 0.00 23 1016.8
20180224181645 33 321 14.0 23.0 0.00 0.00 0.00 22 1016.8
20180224181141 33 268 11.0 25.0 0.00 0.00 0.00 23 1016.7
20180224180642 33 249 6.0 25.0 0.00 0.00 0.00 22 1016.7
20180224180142 33 280 9.0 25.0 0.00 0.00 0.00 21 1016.8
20180224175642 32 311 6.0 25.0 0.00 0.00 0.00 23 1016.8
20180224175141 32 292 9.0 20.0 0.00 0.00 0.00 21 1016.8
20180224174641 32 256 12.0 20.0 0.00 0.00 0.00 21 1016.8
20180224174145 32 262 8.0 15.0 0.00 0.00 0.00 22 1016.9
20180224173641 31 44 2.0 15.0 0.00 0.00 0.00 21 1016.9
20180224173141 31 275 6.0 17.0 0.00 0.00 0.00 21 1017.0
20180224172641 31 273 4.0 17.0 0.00 0.00 0.00 22 1017.1
20180224172140 30 266 10.0 13.0 0.00 0.00 0.00 22 1017.1
20180224171641 30 287 6.0 15.0 0.00 0.00 0.00 23 1017.1
20180224171140 30 284 5.0 15.0 0.00 0.00 0.00 24 1017.1
20180224170639 30 300 7.0 20.0 0.00 0.00 0.00 24 1017.1
20180224170139 29 252 5.0 20.0 0.00 0.00 0.00 25 1017.3
20180224165640 29 299 9.0 20.0 0.00 0.00 0.00 25 1017.4
20180224165140 29 297 6.0 20.0 0.00 0.00 0.00 25 1017.4
20180224164643 29 253 6.0 20.0 0.00 0.00 0.00 25 1017.5
20180224164140 29 298 8.0 15.0 0.00 0.00 0.00 24 1017.6
20180224163639 29 247 5.0 15.0 0.00 0.00 0.00 25 1017.7
20180224163140 29 295 9.0 17.0 0.00 0.00 0.00 25 1017.7
20180224162640 29 271 8.0 17.0 0.00 0.00 0.00 25 1017.7
20180224162139 28 265 3.0 15.0 0.00 0.00 0.00 27 1017.8
20180224161639 28 286 9.0 15.0 0.00 0.00 0.00 29 1017.8
20180224161140 28 305 10.0 15.0 0.00 0.00 0.00 27 1017.8
20180224160639 28 301 8.0 15.0 0.00 0.00 0.00 32 1017.7
20180224160139 28 251 5.0 17.0 0.00 0.00 0.00 34 1018.0
20180224155641 28 291 9.0 17.0 0.00 0.00 0.00 32 1018.0
20180224155139 28 247 5.0 13.0 0.00 0.00 0.00 39 1018.1
20180224154639 27 262 3.0 15.0 0.00 0.00 0.00 42 1018.1
20180224154138 27 282 3.0 15.0 0.00 0.00 0.00 45 1018.2
20180224153642 27 259 6.0 15.0 0.00 0.00 0.00 48 1018.1
20180224153138 27 44 0.0 10.0 0.00 0.00 0.00 49 1018.1
20180224152639 26 16 8.0 13.0 0.00 0.00 0.00 51 1018.0
20180224152138 26 92 0.0 13.0 0.00 0.00 0.00 53 1018.1
20180224151638 25 244 2.0 10.0 0.00 0.00 0.00 57 1018.1